Regional Weather Roundup
Issued by NWS

Home | Current Version | Previous Version | Graphics & Text | Print | Product List | Glossary On
Versions: 1 2 3 4 5 6 7 8 9 10 11 12 13 14 15 16 17 18 19 20 21 22 23 24 25 26 27 28 29 30 31 32 33 34 35 36 37 38 39 40 41 42 43 44 45 46
000
ASUS45 KBOU 241607
RWRCO

WEATHER ROUNDUP FOR COLORADO
NATIONAL WEATHER SERVICE DENVER/BOULDER CO
900 AM MST WED DEC 24 2014

NOTE: "FAIR" INDICATES FEW OR NO CLOUDS BELOW 12000 FEET WITH NO
SIGNIFICANT WEATHER AND/OR OBSTRUCTIONS TO VISIBILITY.

COZ001>005-013-030-031-241700-
...NORTHWEST COLORADO...

CITY           SKY/WX    TMP DP  RH WIND       PRES   REMARKS
CRAIG          MOSUNNY    8   4  83 CALM      30.13F
HAYDEN         MOSUNNY   10   3  72 E12       30.11F WCI  -4
MEEKER         MOSUNNY    6   1  80 NE5       30.13F WCI  -3
MOUNT WERNER   NOT AVBL
STEAMBOAT SPGS CLOUDY     5   2  85 CALM      30.13F
WALDEN         PTSUNNY    9   0  66 SE6       30.04F WCI  -1
$$

COZ006>008-011-241700-
...WEST CENTRAL VALLEYS...

CITY           SKY/WX    TMP DP  RH WIND       PRES   REMARKS
GRAND JUNCTION MOSUNNY   23  13  65 SE14      30.20F WCI  11
MONTROSE       SUNNY     18   8  65 CALM      30.24F
EAGLE          SUNNY      5   1  85 CALM      30.26F
RIFLE          MOSUNNY   16   6  65 VRB3      30.24F
DELTA          SUNNY     19  10  65 NE6       30.25F WCI  11
NUCLA          SUNNY     21  10  63 E7        30.23S WCI  13
$$

COZ017>023-064>068-241700-
...SOUTHWEST COLORADO...

CITY           SKY/WX    TMP DP  RH WIND       PRES   REMARKS
DURANGO        SUNNY     16   7  67 E7        30.15S WCI   6
CORTEZ         SUNNY     23  10  57 E6        30.17S WCI  16
PAGOSA SPRINGS SUNNY     14   2  60 CALM      30.13S
TELLURIDE      MOSUNNY   17   4  56 SE6       30.12F WCI   8
WOLF CREEK PAS SUNNY     21   5  49 MISG      30.07R
$$

COZ009-010-012-014-032>034-037-058>063-241700-
...CENTRAL COLORADO...

CITY           SKY/WX    TMP DP  RH WIND       PRES   REMARKS
ASPEN          SUNNY      7   0  73 S5        30.13F WCI  -2
BUENA VISTA    MOSUNNY   17  -1  44 CALM      30.03R
COPPER MTN     MOSUNNY   18  12  79 W13       30.03S WCI   4
BERTHOUD PASS  NOT AVBL
COTTONWOOD PAS MOSUNNY   25   0  33 SE3       30.00R
GUNNISON       MOSUNNY  -15 -26  58 CALM      30.24S
KREMMLING      MOSUNNY    1  -4  78 CALM      30.19F
LEADVILLE      MOSUNNY   13   3  64 NE13      30.02F WCI  -2
SALIDA         MOSUNNY   24   3  39 NW10      30.10R WCI  14
SUNLIGHT         N/A    N/A N/A N/A MISG      30.09S
WILKERSON PASS MOSUNNY   23  10  58 N14G33    29.98R WCI  11
$$

COZ069>075-241700-
...SAN LUIS VALLEY/SANGRE DE CRISTO MOUNTAINS...

CITY           SKY/WX    TMP DP  RH WIND       PRES   REMARKS
ALAMOSA        MOSUNNY   13   0  56 SW5       30.12S WCI   5
LA VETA PASS   SUNNY      7  -4  61 MISG      29.97R
SAGUACHE       MOSUNNY    9   0  66 E6        30.11F WCI  -1
$$

COZ035-036-038>040-241700-
...NORTHERN COLORADO FRONT RANGE...

CITY           SKY/WX    TMP DP  RH WIND       PRES   REMARKS
DENVER INTL AP MOSUNNY   30   9  41 S9        29.85S WCI  22
DMNS CITY PARK   N/A     31   5  33 S7        29.85F WCI  24
AURORA         MOSUNNY   30   7  37 S10       29.86S WCI  21
FRONT RANGE AP MOSUNNY   32  12  43 S7        29.86F WCI  26
ERIE MUNI ARPT   N/A     23  15  71 CALM      29.85F
BOULDER MUN AP SUNNY     27  10  50 CALM      29.84F
CENTENNIAL     MOSUNNY   27  14  58 S5        29.86S WCI  22
BROOMFIELD     PTSUNNY   28  16  59 CALM      29.84F
FORT COLLINS   SUNNY     19  12  73 CALM      29.86F
LONGMONT       SUNNY     26  13  59 CALM      29.87F
$$

COZ041-046-047-076>085-087-088-241700-
...PIKES PEAK/PALMER DIVIDE AND SOUTHERN FOOTHILLS...

CITY           SKY/WX    TMP DP  RH WIND       PRES   REMARKS
COLO. SPRINGS  MOSUNNY   29   8  41 CALM      29.90F
A. F. ACADEMY  SUNNY     17   4  57 N8        29.89F WCI   6
ELLICOTT       NOT AVBL
FALCON         SUNNY     28  -1  28 W3        29.89S
FORT CARSON    SUNNY     22   6  50 N10       29.89F WCI  11
LIMON          SUNNY     22  10  60 N5        29.91F WCI  16
MONUMENT HILL  SUNNY     27   5  39 SW10      29.86R WCI  17
TRINIDAD         N/A    N/A N/A N/A MISG      29.95F
$$

COZ042>045-048>051-090-091-241700-
...NORTHEAST COLORADO...

CITY           SKY/WX    TMP DP  RH WIND       PRES   REMARKS
GREELEY ARPT   SUNNY     18   7  62 CALM      29.86F
AKRON          SUNNY     25  11  55 SW10      29.87F WCI  15
BURLINGTON     SUNNY     24  12  60 SW7       29.93F WCI  16
WRAY           MOSUNNY   20  13  73 SW7       29.91F WCI  11
STERLING       SUNNY     18  12  79 SW9       29.89F WCI   6
HOLYOKE        MOSUNNY   25  18  74 W9        29.89F WCI  15
FORT MORGAN    SUNNY     15   9  76 SW8       29.88F WCI   4
$$

COZ086-089-092>099-241700-
...SOUTHEAST COLORADO...

CITY           SKY/WX    TMP DP  RH WIND       PRES   REMARKS
PUEBLO         SUNNY     19  11  70 CALM      29.95F
LA JUNTA       MOSUNNY   24  11  57 SW10      29.99S WCI  14
LAMAR          SUNNY     26  14  60 W10       29.99S WCI  16
SPRINGFIELD      N/A     28  14  55 W8        30.00S WCI  20
$$



USA.gov is the U.S. government's official web portal to all federal, state and local government web resources and services.